Flag for Canada Weather past 2 weeks in Winnipeg, Manitoba, Canada

Now
71 °F

Mild.


Feels Like: 74 °F
Forecast: 62 / 85 °F
Wind: 2 mph from Southwest

Location: Winnipeg The Forks

Current Time: Jul 4, 2015 at 12:44:30 AM

Latest Report: Jul 4, 2015 at 12:00 AM


Visibility: N/A

Pressure: 29.86 "Hg

Humidity: 70%

Dew point: 60 °F

Location of WinnipegLocation

Historic Weather in Winnipeg — Graph

°F

Winnipeg temperature yesterday

Maximum temperature yesterday: 80 °F (at 5:00 PM)
Minimum temperature yesterday: 66 °F (at 7:00 AM)
Average temperature yesterday: 73 °F

Past Weeks' High & Low Weather Summary

 TemperatureHumidityPressure
High84 °F (Jun 26, 5:00 PM)96% (Jun 25, 4:00 AM)30.10 "Hg (Jun 25, 4:00 AM)
Low55 °F (Jun 19, 1:00 AM)35% (Jun 20, 6:00 PM)29.69 "Hg (Jun 22, 4:00 AM)
Average68 °F67%29.89 "Hg
* Reported Jun 18 11:00 PM — Jul 3 11:00 PM, Winnipeg, Weather by CustomWeather, © 2015

Note: Actual official high and low records may vary slightly from our data, if they occured in-between our weather recording intervals... More about our weather records

Advertising

Winnipeg weather history for previous 24 hours

 ConditionsComfort  
Time TempWeatherWind HumidityBarometerVisibility
11:00 PM
Fri, Jul 3
73 °FMild.2 mph65%29.87 "HgN/A
10:00 PM74 °FMild.2 mph59%29.87 "HgN/A
6:00 PM80 °FWarm.2 mph47%29.88 "HgN/A
5:00 PM80 °FWarm.1 mph40%29.89 "HgN/A
4:00 PM78 °FWarm.3 mph50%29.90 "HgN/A
3:00 PM79 °FWarm.3 mph47%29.91 "HgN/A
2:00 PM78 °FWarm.2 mph47%29.92 "HgN/A
1:00 PM78 °FWarm.2 mph54%29.91 "HgN/A
12:00 PM76 °FMild.3 mph55%29.92 "HgN/A
11:00 AM74 °FMild.2 mph66%29.92 "HgN/A
10:00 AM71 °FMild.2 mph66%29.93 "HgN/A
9:00 AM67 °FMild.2 mph75%29.92 "HgN/A
7:00 AM66 °FMild.5 mph79%29.89 "HgN/A
4:00 AM67 °FMild.3 mph85%29.86 "HgN/A
3:00 AM68 °FMild.2 mph80%29.86 "HgN/A
2:00 AM68 °FMild.2 mph85%29.86 "HgN/A
12:00 AM69 °FMild.2 mph81%29.85 "HgN/A
Weather by CustomWeather, © 2015

See weather overviewHow to use our weather pages